Location: Cheching
(60.0667°N, 164.2167°W)
Time: 01:48:35
(UTC+00:00)

DX 1 - Pass Details

Date: 27 January 2021
Orbit: 618 x 631 km, 98.5° (Epoch: 07 March)

Event Time Altitude Azimuth Distance (km) Brightness Sun altitude
Rises 15:16:12 0° 129° (SE) 2,911 ? -29.8°
Reaches altitude 10° 15:18:32 10° 120° (ESE) 2,005 ? -29.5°
Maximum altitude 15:22:26 33° 57° (ENE) 1,066 ? -29.1°
Enters shadow 15:24:45 20° 7° (N) 1,474 ? -28.8°
